Location: La Comballaz
(46.3780°N, 7.0817°E)
Time: 03:45:54
(UTC+00:00)

Envisat - Pass Details

Date: 16 December 2021
Orbit: 764 x 766 km, 98.2° (Epoch: 16 January)

Event Time Altitude Azimuth Distance (km) Brightness Sun altitude
Rises 04:44:19 0° 12° (NNE) 3,243 6.3 -23.9°
Reaches altitude 10° 04:46:38 10° 12° (NNE) 2,312 5.5 -23.5°
Maximum altitude 04:51:44 82° 285° (WNW) 779 2.8 -22.6°
Drops below altitude 10° 04:56:48 10° 199° (SSW) 2,294 5.4 -21.8°
Sets 04:59:05 0° 198° (SSW) 3,216 6.2 -21.4°
